Showing default

PERSEUS M1, 40039

Orbit data source: Space-Track

PERSEUS M1, 40039 is a payload satellite owned by Canopus Sys (CIS) in SSO that was launched on Thu, 19 Jun 2014 UTC via a DNEPR launch vehicle from the Orenburg, Russia (OREN). Payload-class satellites include a variety of spacecraft equipped with specific instruments for various scientific and technological missions. These include communications satellites like Starlink; space stations such as the ISS; scientific satellites like the Hubble; Earth observation satellites from companies like Planet Labs, Umbra, and HawkEye 360; GPS; miniature CubeSats for education and research; and military/defense satellites.

Loading next visibility...
Identifier
40039, 2014-033AF
Orbit
SSO
Country
Flag of CISCIS
Related business
None
Manufacturer
Canopus Sys
Mission
Operational Commercial Communications
Bus & Motor
CUBESAT 6U, Unknown motor
Mass
~10 kg wet, ~10 kg dry
Launch date (UTC)
2014-06-19 (12 years ago)
Launch vehicle
DNEPR
Launch site
Orenburg, Russia (OREN)
Object type
Payload
Rocket body
Debris
Shape & HBR
Box, 0.1 m
Radar Cross Section
0.105 m², Medium (>0.1 m² and < 1m²)

Expand to show TLE details & history
Last TLE update: 10 hours ago

TLE from 10 hours ago
0 PERSEUS M1
1 40039U 14033AF  26123.40980427  .00001685  00000-0  15749-3 0  9994
2 40039  97.9627  66.8203 0013229  86.1537 274.1196 14.95484927643949
Epoch: 2026-05-03T09:50Z
TLE epoch observation values (Epoch: 2026-05-03T09:50:07.088Z)
Latitude
Longitude
57.97701°
Altitude
583.259 km
Speed
7.569 km/s
True Right ascension
04h 27m 16s
True Declination
0° 00' 00"
Sunlit
Object was in daylight at epoch
Visualization orbit readout
Latitude
Unknown
Longitude
Unknown
Altitude
Unknown
Speed
Unknown
Apparent Right ascension
Unknown
Apparent Declination
Unknown
Sunlit
N/A
Visualization observer readout
Local Sidereal Time
04:02:11
Azimuth
Unknown
Elevation
Unknown
Doppler factor
Unknown
Orbital elements
Apogee altitude
587.093 km
Perigee altitude
568.689 km
Semi-major axis
6,956.028 km
Eccentricity
0.00132
Inclination
97.9627°
RAAN
66.8203°
Arg. of periapsis
86.1537°
True anomaly
273.96838°
Mean anomaly
274.1196°
Eccentric anomaly
274.04399°
Mean motion
3.74112 °/min
Orbital period
96.23 mins
BSTAR
0.00015749
Loading maneuver chart data...
Computing Atmospheric mass density...
Loading historical data...
Loading historical data...
Loading historical data...
Loading historical data...
Loading historical data...
Loading historical data...
Loading historical data...

Documentation

Showing up to 5 results
|